Regional Weather Roundup
Issued by NWS Charleston, WV

Home | Current Version | Previous Version | Text Only | Print | Product List | Glossary Off
Versions: 1 2 3 4 5 6 7 8 9 10 11 12 13 14 15 16 17 18 19 20 21 22 23 24 25 26 27 28 29 30 31 32 33 34 35 36 37 38 39 40 41 42 43 44 45 46 47 48 49 50

000
ASUS41 KRLX 291910
RWRRLX
West Virginia Regional Weather Roundup
National Weather Service Charleston WV
300 PM EDT MON MAY 29 2017

Note: "fair" indicates few or no clouds below 12,000 feet with no
significant weather and/or obstructions to visibility.

WVZ003-292000-
Northern Panhandle of West Virginia

CITY           SKY/WX    TMP DP  RH WIND       PRES   REMARKS
WHEELING       MOSUNNY   77  49  37 W7G23     29.95R
$$

WVZ009-292000-
Northwest West Virginia

CITY           SKY/WX    TMP DP  RH WIND       PRES   REMARKS
PARKERSBURG    CLOUDY    76  58  53 VRB3      29.98S
$$

WVZ006-292000-
Western West Virginia

CITY           SKY/WX    TMP DP  RH WIND       PRES   REMARKS
HUNTINGTON     CLOUDY    78  59  51 VRB3      29.98S
$$

WVZ015-292000-
West Central West Virginia

CITY           SKY/WX    TMP DP  RH WIND       PRES   REMARKS
CHARLESTON     PTSUNNY   77  57  50 SW8       29.99F
$$

WVZ022-031-292000-
North Central West Virginia

CITY           SKY/WX    TMP DP  RH WIND       PRES   REMARKS
CLARKSBURG     CLOUDY    76  57  51 SW14G20   29.97S
MORGANTOWN     PTSUNNY   76  55  48 SW9       29.97S
$$

WVZ025-035-042-045-292000-
Southern West Virginia

CITY           SKY/WX    TMP DP  RH WIND       PRES   REMARKS
BECKLEY        CLOUDY    72  51  47 W7        30.07S
LOGAN            N/A     73  52  46 CALM      30.02F
BLUEFIELD      PTSUNNY   68  55  63 CALM      30.09F
LEWISBURG      CLOUDY    72  47  41 W7        30.06S
$$

WVZ047-292000-
Northern Mountains of West Virginia

CITY           SKY/WX    TMP DP  RH WIND       PRES   REMARKS
ELKINS         PTSUNNY   73  52  47 W12       30.02F
$$

WVZ052-292000-
Eastern Panhandle of West Virginia

CITY           SKY/WX    TMP DP  RH WIND       PRES   REMARKS
MARTINSBURG    PTSUNNY   79  54  41 W13       29.93R
PETERSBURG     CLOUDY    78  55  45 W7        29.96F
$$



USA.gov is the U.S. government's official web portal to all federal, state and local government web resources and services.